5 day graph

You are here

Hive Data

Page: 1 of 16645  Records: 998690

Row Date Time Hive Temp Hive Humidity Outside Temp Outside Humidity Bottom Board Temp Outside Wall Temp Electronics Temp Light Levels inHG Fan Heat Cover Notes
Clear Sorted By: Light Levels ascending, Bottom Board Temp ascending, Cover ascending, Row descending
View 765241 Dec 30 2015 7:46:52am 40.1 55 26.06 87 24.8 26.6 41 0 29.6 0 0 0 NA
View 765238 Dec 30 2015 7:43:51am 40.28 53 26.24 87 24.8 26.6 41 0 29.6 0 0 0 NA
View 765234 Dec 30 2015 7:39:51am 40.28 53 26.06 86 24.8 26.6 39.2 0 29.6 0 0 0 NA
View 765233 Dec 30 2015 7:38:50am 40.28 53 26.06 86 24.8 26.6 39.2 0 29.6 0 0 0 NA
View 765232 Dec 30 2015 7:37:50am 40.28 53 26.06 86 24.8 26.6 39.2 0 29.6 0 0 0 NA
View 765230 Dec 30 2015 7:35:50am 40.46 53 26.06 87 24.8 26.6 39.2 0 29.6 0 0 0 NA
View 765229 Dec 30 2015 7:34:50am 40.46 52 25.88 87 24.8 26.6 39.2 0 29.6 0 0 0 NA
View 765228 Dec 30 2015 7:33:50am 40.46 52 25.88 88 24.8 26.6 39.2 0 29.6 0 0 0 NA
View 765227 Dec 30 2015 7:32:49am 40.46 54 25.88 88 24.8 26.6 39.2 0 29.6 0 0 0 NA
View 765226 Dec 30 2015 7:31:49am 40.46 54 25.88 88 24.8 26.6 41 0 29.6 0 0 0 NA
View 765225 Dec 30 2015 7:30:49am 40.46 54 25.88 88 24.8 26.6 41 0 29.6 0 0 0 NA
View 765224 Dec 30 2015 7:29:49am 40.46 52 25.88 88 24.8 26.6 41 0 29.6 0 0 0 NA
View 765223 Dec 30 2015 7:28:49am 40.46 52 25.88 89 24.8 26.6 39.2 0 29.6 0 0 0 NA
View 765222 Dec 30 2015 7:27:49am 40.46 53 25.7 88 24.8 26.6 39.2 0 29.6 0 0 0 NA
View 765221 Dec 30 2015 7:26:48am 40.46 53 25.7 88 24.8 26.6 39.2 0 29.6 0 0 0 NA
View 765220 Dec 30 2015 7:25:48am 40.46 54 25.7 88 24.8 26.6 41 0 29.59 0 0 0 NA
View 765219 Dec 30 2015 7:24:48am 40.46 55 25.7 89 24.8 26.6 41 0 29.59 0 0 0 NA
View 765218 Dec 30 2015 7:23:47am 40.46 54 25.7 89 24.8 26.6 39.2 0 29.6 0 0 0 NA
View 765217 Dec 30 2015 7:22:48am 40.46 54 25.7 89 24.8 26.6 39.2 0 29.59 0 0 0 NA
View 765216 Dec 30 2015 7:21:47am 40.46 53 25.7 89 24.8 26.6 39.2 0 29.6 0 0 0 NA
View 765215 Dec 30 2015 7:20:47am 40.46 53 25.7 89 24.8 26.6 39.2 0 29.59 0 0 0 NA
View 765213 Dec 30 2015 7:18:46am 40.46 54 25.7 89 24.8 26.6 39.2 0 29.59 0 0 0 NA
View 765211 Dec 30 2015 7:16:46am 40.46 54 25.7 89 24.8 26.6 41 0 29.59 0 0 0 NA
View 765207 Dec 30 2015 7:12:45am 40.46 52 25.7 89 24.8 26.6 39.2 0 29.59 0 0 0 NA
View 765206 Dec 30 2015 7:11:45am 40.46 53 25.7 88 24.8 26.6 41 0 29.59 0 0 0 NA
View 765205 Dec 30 2015 7:10:45am 40.46 53 25.7 88 24.8 26.6 41 0 29.59 0 0 0 NA
View 765204 Dec 30 2015 7:09:45am 40.46 54 25.7 88 24.8 26.6 41 0 29.59 0 0 0 NA
View 765200 Dec 30 2015 7:05:44am 40.28 54 25.52 88 24.8 26.6 41 0 29.59 0 0 0 NA
View 765197 Dec 30 2015 7:02:43am 40.46 52 25.52 87 24.8 26.6 41 0 29.59 0 0 0 NA
View 765214 Dec 30 2015 7:19:47am 40.46 54 25.7 89 25.25 26.6 39.2 0 29.59 0 0 0 NA
View 765212 Dec 30 2015 7:17:46am 40.46 54 25.7 89 25.25 26.6 39.2 0 29.6 0 0 0 NA
View 765210 Dec 30 2015 7:15:46am 40.46 54 25.7 89 25.25 26.6 39.2 0 29.59 0 0 0 NA
View 765209 Dec 30 2015 7:14:46am 40.46 54 25.7 89 25.25 26.6 39.2 0 29.59 0 0 0 NA
View 765208 Dec 30 2015 7:13:46am 40.46 53 25.7 89 25.25 26.6 39.2 0 29.59 0 0 0 NA
View 765203 Dec 30 2015 7:08:45am 40.46 55 25.7 88 25.25 26.6 41 0 29.59 0 0 0 NA
View 765202 Dec 30 2015 7:07:44am 40.46 55 25.7 88 25.25 26.6 41 0 29.59 0 0 0 NA
View 765201 Dec 30 2015 7:06:44am 40.46 55 25.7 88 25.25 26.6 41 0 29.59 0 0 0 NA
View 765199 Dec 30 2015 7:04:44am 40.28 53 25.7 87 25.25 26.6 41 0 29.59 0 0 0 NA
View 765198 Dec 30 2015 7:03:44am 40.46 52 25.52 87 25.25 26.6 41 0 29.58 0 0 0 NA
View 765196 Dec 30 2015 7:01:43am 40.46 52 25.52 87 25.25 26.6 41 0 29.59 0 0 0 NA
View 765195 Dec 30 2015 7:00:43am 40.64 52 25.52 88 25.25 26.6 41 0 29.58 0 0 0 NA
View 765194 Dec 30 2015 6:59:43am 40.64 55 25.52 88 25.25 26.6 41 0 29.58 0 0 0 NA
View 765193 Dec 30 2015 6:58:43am 40.64 54 25.52 88 25.25 26.6 41 0 29.59 0 0 0 NA
View 765192 Dec 30 2015 6:57:42am 40.64 53 25.52 88 25.25 26.6 41 0 29.59 0 0 0 NA
View 765191 Dec 30 2015 6:56:42am 40.64 53 25.52 87 25.25 26.6 41 0 29.59 0 0 0 NA
View 765190 Dec 30 2015 6:55:42am 40.64 53 25.52 87 25.25 26.6 41 0 29.58 0 0 0 NA
View 765189 Dec 30 2015 6:54:42am 40.64 53 25.7 87 25.25 26.6 41 0 29.58 0 0 0 NA
View 765188 Dec 30 2015 6:53:42am 40.64 53 25.52 87 25.25 26.6 41 0 29.58 0 0 0 NA
View 765187 Dec 30 2015 6:52:42am 40.64 53 25.7 87 25.25 26.6 41 0 29.58 0 0 0 NA
View 765186 Dec 30 2015 6:51:41am 40.64 53 25.7 87 25.25 26.6 41 0 29.58 0 0 0 NA
View 765185 Dec 30 2015 6:50:41am 40.64 53 25.7 87 25.25 26.6 41 0 29.58 0 0 0 NA
View 765184 Dec 30 2015 6:49:41am 40.64 53 25.7 87 25.25 26.6 41 0 29.58 0 0 0 NA
View 765183 Dec 30 2015 6:48:41am 40.64 54 25.7 87 25.25 26.6 41 0 29.58 0 0 0 NA
View 765182 Dec 30 2015 6:47:41am 40.64 53 25.7 87 25.25 26.6 41 0 29.58 0 0 0 NA
View 765181 Dec 30 2015 6:46:40am 40.64 54 25.88 88 25.25 26.6 41 0 29.58 0 0 0 NA
View 765180 Dec 30 2015 6:45:40am 40.64 55 25.7 88 25.25 26.6 41 0 29.58 0 0 0 NA
View 765179 Dec 30 2015 6:44:40am 40.64 54 25.88 87 25.25 26.6 41 0 29.58 0 0 0 NA
View 765178 Dec 30 2015 6:43:40am 40.64 54 25.7 87 25.25 26.6 41 0 29.58 0 0 0 NA
View 765177 Dec 30 2015 6:42:40am 40.64 54 25.7 87 25.25 26.6 39.2 0 29.58 0 0 0 NA
View 765176 Dec 30 2015 6:41:39am 40.64 55 25.7 88 25.25 26.6 39.2 0 29.58 0 0 0 NA